Location: Unspecified
(0.0000°N, 0.0000°E)
Time: 11:55:16
(UTC+00:00)

A-11 Canister half - Visible Passes

Search period start: 30 August 2015 00:00
Search period end: 09 September 2015 00:00
Orbit: 1525 x 1684 km, 47.3° (Epoch: 28 August)

Date Brightness Start Highest point End Pass type
(mag) Time Alt. Az. Time Alt. Az. Time Alt. Az.
30 Aug 11.3 05:08:02 10° N 05:15:05 22° NE 05:22:32 10° E visible
30 Aug 10.2 20:03:12 10° WSW 20:11:44 37° NW 20:20:18 10° NNE visible
31 Aug 11.3 04:46:45 10° N 04:53:25 21° NE 05:00:35 10° E visible
31 Aug 10.1 19:41:29 10° WSW 19:50:08 39° NW 19:58:52 10° NNE visible
01 Sep 11.3 04:25:29 10° N 04:31:45 19° NE 04:38:34 10° E visible
01 Sep 10.1 19:19:47 10° WSW 19:28:33 42° NW 19:37:26 10° NNE visible
02 Sep 11.3 04:04:16 10° N 04:10:05 18° NE 04:16:31 10° E visible
02 Sep 10.0 18:58:06 10° WSW 19:06:58 45° NW 19:15:58 10° NNE visible
03 Sep 11.3 03:43:06 10° N 03:48:24 16° NE 03:54:23 10° E visible
03 Sep 10.0 18:36:27 10° WSW 18:45:24 49° NW 18:54:29 10° NNE visible
04 Sep 11.3 03:22:00 10° NNE 03:26:43 15° NE 03:32:11 10° ENE visible
04 Sep 9.4 05:22:31 10° NW 05:32:39 77° NE 05:42:34 10° SE visible
04 Sep 9.9 18:14:48 10° SW 18:23:49 52° NW 18:33:00 10° NNE visible
05 Sep 11.3 03:01:00 10° NNE 03:05:01 13° NE 03:09:53 10° ENE visible
05 Sep 9.4 05:00:58 10° NNW 05:11:04 72° NE 05:20:59 10° SE visible
06 Sep 11.3 02:40:09 10° NNE 02:43:19 12° NE 02:47:24 10° ENE visible
06 Sep 9.5 04:39:25 10° NNW 04:49:28 68° NE 04:59:22 10° SE visible
07 Sep 11.3 02:19:35 10° NNE 02:21:37 11° NE 02:24:37 10° ENE visible
07 Sep 9.5 04:17:53 10° NNW 04:27:52 64° NE 04:37:44 10° SE visible
07 Sep 11.6 19:23:24 10° NW 19:25:11 10° NW 19:26:04 10° NW visible
08 Sep 9.5 03:56:22 10° NNW 04:06:16 60° NE 04:16:06 10° SE visible
08 Sep 11.5 19:00:17 10° WNW 19:03:30 11° NW 19:05:54 10° NNW visible
